Location: Afsné
(51.0317°N, 3.6655°E)
Time: 12:50:45
(UTC+00:00)

Daily predictions for brighter satellites

Satellite Brightness Start Highest point End
(mag) Time Altitude Azimuth Time Altitude Azimuth Time Altitude Azimuth
CZ-4C R/B 3.8 17:49:27 10° WNW 17:54:13 29° NNW 18:00:01 10° NE
Cosmos 1933 Rocket 4.2 17:54:03 10° SSE 17:57:59 34° E 18:01:56 10° NNE
GEOS 3 Rocket 3.7 17:53:24 10° NE 17:58:50 85° SE 18:04:09 10° SW
USA 308 4.4 17:56:43 10° W 17:59:34 26° SW 18:02:37 10° SSE
Meteor PRIRODA 3.7 17:58:08 10° S 18:01:39 77° WSW 18:05:14 10° NNW
USA 186 3.8 18:02:46 10° ENE 18:03:25 10° ENE 18:04:03 10° NE
Cosmos 1821 Rocket 4.2 18:00:18 10° N 18:06:23 49° ENE 18:12:30 10° SSE
ISS -3.1 18:03:42 10° W 18:06:58 51° SSW 18:10:14 10° SE
USA 305 1.9 18:07:15 10° WNW 18:09:29 52° SSW 18:11:43 10° SE
Cosmos 2360 Rocket 2.7 18:04:49 10° SW 18:10:26 66° WNW 18:16:07 10° NNE
BREEZE-M R/B 4.1 18:07:53 10° W 18:12:16 73° S 18:21:33 10° ESE
SL-8 Rocket 4.3 18:09:47 10° NNW 18:16:04 77° W 18:22:20 10° S
Landsat 4 4.4 18:13:04 10° SE 18:16:17 31° ENE 18:19:33 10° N
Cosmos 2366 rocket 4.1 18:12:31 10° N 18:18:44 83° W 18:24:51 10° S
SL-08 R/B 3.5 18:13:48 10° NNE 18:18:47 88° WNW 18:23:43 10° SSW
ATLAS 3B R/B 3.1 18:14:12 10° S 18:20:43 46° ESE 18:27:42 10° NE
Cosmos 2369 Rocket 4.0 18:17:27 10° N 18:20:45 16° NNE 18:24:03 10° ENE
Cosmos 2292 4.2 18:18:02 10° S 18:20:58 58° E 18:24:14 10° NNE
Cosmos 2237 Rocket 3.3 18:17:14 10° SSE 18:21:27 22° E 18:25:42 10° NE
IGS 5A 3.4 18:17:24 10° SSE 18:21:28 71° ENE 18:25:34 10° N
CENTAUR R/B 4.1 18:15:48 10° NW 18:22:14 33° N 18:29:44 10° ENE
ADEOS 4.3 18:18:30 10° S 18:23:37 58° WSW 18:28:47 10° NNW
Cosmos 2333 4.4 18:18:11 10° SW 18:23:49 75° WNW 18:29:31 10° NNE
Cosmos 1633 Rocket 4.1 18:19:40 10° SSW 18:23:53 50° WNW 18:28:09 10° N
YAOGAN 1 2.5 18:19:48 10° SSE 18:24:06 87° ENE 18:28:27 10° NNW
Cosmos 1340 Rocket 3.5 18:22:13 10° NNW 18:26:14 60° W 18:30:11 10° S
SPOT 1/Viking Rocket 4.4 18:24:05 10° ESE 18:28:26 30° ENE 18:32:51 10° N
Cosmos 2322 3.7 18:24:08 10° SSW 18:29:49 70° ESE 18:35:31 10° NNE
Cosmos 2333 Rocket 2.8 18:24:47 10° SW 18:30:23 62° NW 18:36:03 10° NNE
Nadezhda 3 Rocket 4.3 18:24:48 10° SSE 18:30:45 44° E 18:36:43 10° NNE
CZ-4B R/B 3.3 18:27:39 10° S 18:31:05 54° W 18:34:33 10° NNW
DELTA 2 DEB (DPAF) 4.1 18:26:48 10° NNE 18:31:06 60° ESE 18:35:21 10° S
SJ-6B 3.3 18:27:27 10° SE 18:31:14 41° ENE 18:35:00 10° N
COSMO-SKYMED 1 3.3 18:27:02 10° N 18:31:20 58° WNW 18:35:34 10° SSW
Cosmos 1733 3.7 18:29:34 10° SSW 18:33:13 60° WNW 18:36:54 10° N
Lacrosse 5 2.7 18:28:55 10° WNW 18:33:49 43° N 18:38:02 13° ENE
COSMOS 2428 2.7 18:29:32 10° SSW 18:35:06 61° ESE 18:40:43 10° NE
Cosmos 1805 3.3 18:33:42 10° SSW 18:37:28 80° W 18:41:17 10° N
Cosmos 1869 Rocket 3.7 18:34:20 10° SSE 18:38:31 47° E 18:42:42 10° NNE
MOS 1-B 4.4 18:34:26 10° SSE 18:40:08 63° ENE 18:45:51 10° N
ADEOS Rocket 4.0 18:33:36 10° SE 18:40:32 39° ENE 18:47:03 10° N
Okean O Rocket 2.0 18:36:30 10° SE 18:40:36 42° ENE 18:44:49 10° N
IKONOS-2 4.4 18:36:29 10° NNE 18:40:44 84° ESE 18:44:56 10° SSW
Cosmos 1470 3.9 18:41:39 20° ESE 18:42:38 22° E 18:45:40 10° NE
Cosmos 1269 Rocket 4.3 18:38:25 10° S 18:43:23 43° ESE 18:48:22 10° NE
NOSS 0 Rocket 4.2 18:38:12 10° S 18:44:00 44° ESE 18:49:53 10° NE
NOSS 2-3 (C) 3.7 18:41:02 10° SW 18:44:50 69° NW 18:49:22 10° NE
Cosmos 389 Rocket 4.2 18:43:10 10° NNE 18:44:14 13° NE 18:44:14 13° NE
Cosmos 1943 Rocket 2.6 18:40:11 10° NNW 18:45:39 45° NE 18:49:24 19° ESE
Meteor 1-24 Rocket 4.5 18:43:25 10° N 18:48:10 29° ENE 18:50:38 21° ESE
NOSS 2-3 (D) 3.7 18:46:14 10° SW 18:50:01 67° NW 18:54:30 10° NE
USA 215 4.4 18:49:42 18° ESE 18:50:28 18° ESE 18:54:45 10° SSE
NOSS 3-1 (A) 3.7 18:48:10 10° S 18:52:41 33° ESE 18:57:56 10° NE
Cosmos 2219 Rocket 2.8 18:51:59 10° SW 18:57:30 59° NW 19:03:05 10° NNE
Okean 2 3.8 18:53:45 10° NNW 18:57:44 62° W 19:01:42 10° S
Cosmos 1975 4.4 18:55:12 10° SW 18:58:48 36° WNW 19:02:26 10° N
Resurs 1-3 3.5 18:55:56 11° SSE 19:00:06 69° ENE 19:04:28 10° N
NOSS 2-2 (E) 3.1 18:57:26 10° SW 19:00:37 65° NW 19:03:43 12° NE
CSL-04 Debris 4.2 18:56:08 13° SE 19:00:54 59° ENE 19:06:14 10° N
Resurs 01 Rocket 2.3 19:01:21 28° ESE 19:02:50 35° ENE 19:06:54 10° N
Feng Yun 1-1 Rocket 4.3 19:00:44 10° SSE 19:06:33 80° ENE 19:12:15 10° NNW
Cosmos 1992 Rocket 4.4 19:03:51 10° NNW 19:09:03 65° WSW 19:14:12 10° S
COSMOS 2455 3.6 19:05:56 10° NW 19:11:44 50° WSW 19:17:29 10° S
Cosmos 405 3.7 19:09:30 10° N 19:10:56 26° NNE 19:10:56 26° NNE
PSLV R/B 4.1 19:09:19 10° S 19:13:10 66° WSW 19:17:05 10° NNW
Landsat 7 4.2 19:11:17 10° S 19:15:58 65° WSW 19:20:40 10° NNW
Okean-O 3.0 19:16:04 37° ESE 19:17:04 43° ENE 19:21:16 10° N
Cosmos 614 Rocket 3.8 19:13:00 10° SSW 19:18:04 90° W 19:23:10 10° NNE
Cosmos 2242 Rocket 4.2 19:13:53 10° NNW 19:18:19 60° W 19:22:46 10° S
CSL-04 Rocket 3.5 19:15:47 20° SSE 19:19:29 73° ENE 19:24:49 10° NNW
NOSS 2-2 (D) 3.3 19:18:01 10° WSW 19:21:11 57° NW 19:23:04 22° NNE
Cosmos 1733 Rocket 3.2 19:20:44 35° SE 19:22:05 49° E 19:26:18 10° NNE
NOSS 2-2 (C) 3.4 19:21:44 10° WSW 19:24:53 54° NW 19:26:37 24° NNE
Ariane Rocket 4.4 19:25:17 21° ENE 19:25:22 21° ENE 19:29:10 10° N
Cosmos 1980 3.6 19:20:36 10° SSW 19:26:10 65° ESE 19:31:46 10° NE
CZ-4 R/B 2.5 19:24:04 10° S 19:27:42 40° W 19:31:20 10° NNW
USA 267 3.4 19:24:18 28° E 19:27:53 66° NNE 19:34:23 10° WNW
Cosmos 1605 Rocket 4.0 19:22:01 10° N 19:28:00 55° ENE 19:30:40 32° SE
CZ-4B R/B 3.8 19:23:54 10° S 19:29:05 55° W 19:34:19 10° NNW
NOSS 3-1 (C) 3.2 19:25:48 10° SW 19:30:57 82° NW 19:37:15 10° NE
CZ-4C R/B 3.0 19:27:39 10° NNE 19:31:04 75° WNW 19:34:30 10° SSW
Gbstr 26 Del rocket 4.4 19:24:07 10° WSW 19:32:02 72° SSE 19:36:50 27° ENE
Cosmos 1535 Rocket 4.3 19:26:51 10° N 19:32:59 72° ENE 19:36:36 26° SSE
SME Rocket 4.2 19:26:02 10° S 19:33:22 69° WSW 19:38:14 10° NNW
Cosmos 1339 Rocket 4.4 19:27:16 10° S 19:33:29 71° E 19:39:51 10° NNE
USA 186 2.0 19:34:38 58° WSW 19:34:45 59° W 19:37:45 10° NNW
Cosmos 2278 Rocket 3.0 19:29:40 10° NW 19:35:06 48° WSW 19:39:58 13° S
Cosmos 1934 Rocket 4.0 19:28:57 10° N 19:35:20 87° W 19:40:57 13° S
Cosmos 1766 4.3 19:33:42 10° SSW 19:37:20 44° WNW 19:40:59 10° N
CARTOSAT-1 3.5 19:40:42 59° ENE 19:40:47 59° ENE 19:45:00 10° N
Cosmos 1378 Rocket 3.3 19:38:23 10° N 19:42:42 72° ENE 19:43:01 68° ESE
ISS -1.2 19:41:28 10° WSW 19:43:10 13° SW 19:43:38 13° SSW
CZ-4C R/B 3.9 19:39:08 10° NW 19:44:33 30° NNE 19:48:31 19° ENE
IRIDIUM 106 4.4 19:44:19 10° N 19:49:25 52° E 19:49:29 52° E
Meteor 1-12 Rocket 4.2 19:44:57 11° S 19:50:30 72° E 19:56:26 10° NNE
IRS-1C Rocket 4.0 19:53:29 58° SE 19:54:22 71° ENE 19:59:38 10° NNW
ERS-1 Rocket 4.1 19:57:59 30° NE 19:57:59 30° NE 20:01:36 10° N
Meteor 1-22 Rocket 3.9 19:56:43 40° S 19:58:38 78° E 20:03:59 10° NNE
Cosmos 1727 Rocket 4.5 20:01:02 41° ENE 20:01:02 41° ENE 20:06:04 10° NNE
MOS 1 4.2 19:59:27 58° SE 20:00:31 74° ENE 20:06:10 10° NNW
Cosmos 972 Rocket 4.0 19:55:09 10° NNW 20:00:39 63° ENE 20:00:51 62° ENE
Cosmos 1674 Rocket 3.5 19:57:13 10° NNW 20:01:41 83° W 20:01:47 81° SW
Cosmos 2237 Rocket 2.3 19:59:14 10° SW 20:04:55 76° WNW 20:10:40 10° NNE
Cosmos 2369 Rocket 2.5 20:00:47 10° NNW 20:06:13 48° NE 20:06:20 48° ENE
SPOT 5 3.7 20:08:27 35° NNE 20:08:27 35° NNE 20:11:23 10° N
SPOT 1/Viking Rocket 4.3 20:04:42 23° SSW 20:07:38 49° W 20:12:38 10° NNW
Cosmos 2221 Rocket 3.9 20:06:11 10° NNW 20:10:42 64° W 20:11:04 61° SW
ATLAS 3B R/B 3.3 20:04:21 10° WSW 20:11:21 60° NW 20:18:52 10° NE
SL-16 R/B 4.3 20:17:06 13° NE 20:17:06 13° NE 20:17:40 10° NE
Cosmos 1153 Rocket 4.3 20:08:00 10° N 20:14:12 73° E 20:14:55 66° SE
CENTAUR R/B 3.5 20:07:05 10° NW 20:14:40 53° NNE 20:17:24 40° E
Okean O Rocket 3.6 20:13:54 13° SW 20:17:03 26° W 20:20:48 10° NW
Lacrosse 5 1.9 20:12:14 10° WNW 20:17:14 71° NNE 20:17:14 71° NNE
Cosmos 1470 4.2 20:16:30 24° WSW 20:18:06 35° WNW 20:21:43 10° N
COSMOS 2428 4.4 20:14:42 10° WSW 20:19:45 32° NW 20:24:49 10° NNE
Cosmos 1656 Rocket 3.7 20:16:32 10° NNW 20:21:37 63° NE 20:21:37 63° NE
Meteor 2-5 Rocket 4.3 20:18:17 10° NNW 20:23:50 54° W 20:25:45 37° SSW
Cosmos 2297 3.6 20:18:38 10° NNW 20:24:26 86° ENE 20:24:30 86° E
Cosmos 1867 3.6 20:19:00 10° SW 20:24:27 77° NW 20:26:04 47° NNE
Cosmos 2173 Rocket 4.2 20:19:36 10° N 20:25:01 53° NE 20:25:01 53° NE
ADEOS Rocket 3.9 20:20:33 22° S 20:25:44 60° W 20:32:55 10° NNW
USA 229 DEB 4.0 20:20:14 10° SSW 20:32:18 14° NE 20:33:11 10° NE
USA 229 4.1 20:20:19 10° SSW 20:32:28 14° NE 20:33:17 10° NE
Cosmos 1943 Rocket 3.3 20:24:08 10° NW 20:29:21 39° WSW 20:30:56 32° SW
Terra 3.2 20:33:14 30° NNE 20:33:14 30° NNE 20:35:53 10° N
Meteor 1-24 Rocket 4.4 20:26:18 10° NNW 20:31:31 48° W 20:32:49 39° SW
NOSS 3-2 (A) 4.3 20:24:55 10° NW 20:31:43 52° NNE 20:33:15 46° ENE
USA 215 4.1 20:37:08 35° SSW 20:37:08 35° SSW 20:40:53 10° SW
Resurs 01 Rocket 3.1 20:38:52 30° WSW 20:39:20 31° W 20:43:19 10° NNW
Cosmos 2100 Rocket 4.0 20:35:17 10° N 20:40:51 68° NE 20:40:51 68° NE
NOSS 3-1 (A) 3.7 20:37:55 10° WSW 20:43:07 59° NW 20:49:30 10° NE
Cosmos 1763 Rocket 4.0 20:41:27 10° NNW 20:45:25 55° NNW 20:45:25 55° NNW
Cosmos 1459 Rocket 4.1 20:45:39 10° N 20:51:23 71° NNE 20:51:23 71° NNE
Okean-O 4.5 20:53:34 25° W 20:53:40 25° W 20:57:22 10° NW
Cosmos 1140 Rocket 4.5 20:56:20 42° N 20:56:20 42° N 21:00:04 10° NNE
SPOT 3 Rocket 4.5 20:58:45 44° N 20:58:45 44° N 21:02:14 10° NNW
Cosmos 540 Rocket 4.4 20:54:04 10° NNW 20:57:31 43° NNW 20:57:31 43° NNW
Ariane Rocket 4.0 21:05:27 44° NNW 21:05:27 44° NNW 21:08:56 10° NNW
Cosmos 1802 Rocket 4.3 20:58:38 10° N 21:03:50 60° N 21:03:50 60° N
NOSS 3-2 (C) 4.4 21:03:07 10° NW 21:09:53 50° NNE 21:10:22 49° NE
USA 267 3.5 21:11:39 61° WSW 21:11:39 61° WSW 21:17:29 10° WNW
Gbstr 26 Del rocket 4.4 21:11:23 10° W 21:19:11 82° NW 21:19:11 82° NW
CZ-4C R/B 3.2 21:27:43 10° NW 21:33:38 56° NNE 21:33:38 56° NNE
USA 238 DEB 4.4 21:42:40 10° NW 21:48:48 52° N 21:48:48 52° N
USA 238 4.4 21:42:46 10° NW 21:48:54 52° N 21:48:54 52° N
Cosmos 2237 Rocket 4.5 21:45:41 10° W 21:49:59 21° NW 21:54:17 10° NNE
Cosmos 2369 Rocket 3.9 21:45:04 10° NW 21:48:07 27° WNW 21:48:07 27° WNW
SL-16 R/B 4.0 21:58:56 26° N 21:58:56 26° N 22:01:49 10° NNE
Lacrosse 5 4.4 21:55:28 10° WNW 21:56:25 15° WNW 21:56:25 15° WNW
ATLAS 3B R/B 4.3 21:57:05 10° WNW 22:03:36 33° N 22:10:26 10° NE
CENTAUR R/B 3.5 21:57:49 10° NW 22:04:33 59° W 22:04:33 59° W
Terra 4.5 22:11:58 16° NW 22:11:58 16° NW 22:13:09 10° NW
Cosmos 1980 Rocket 4.4 22:26:36 10° NNW 22:29:23 19° NNE 22:29:23 19° NNE
CZ-4C R/B 4.5 23:16:10 10° NW 23:18:44 25° WNW 23:18:44 25° WNW
